Flag for U.S.A. Weather past 2 weeks in Durango, Colorado, U.S.A.

Now
40 °F

Broken clouds.


Feels Like: 29 °F
Forecast: 28 / 40 °F
Wind: 26 mph from West

Location: Durango-La Plata County Airport

Current Time: Dec 22, 2014 at 1:04:10 PM

Latest Report: Dec 22, 2014 at 11:53 AM


Visibility: 10 mi

Pressure: 29.73 "Hg

Humidity: 80%

Dew point: 34 °F

Location of DurangoLocation

Historic Weather in Durango — Graph

°F

Durango temperature yesterday

Maximum temperature yesterday: 38 °F (at 9:53 PM)
Minimum temperature yesterday: 23 °F (at 3:53 AM)
Average temperature yesterday: 31 °F

Past Weeks' High & Low Weather Summary

 TemperatureHumidityPressure
High54 °F (Dec 9, 1:53 PM)100% (Dec 13, 3:53 PM)30.53 "Hg (Dec 13, 3:53 PM)
Low16 °F (Dec 15, 5:53 AM)29% (Dec 9, 1:53 PM)29.73 "Hg (Dec 22, 11:53 AM)
Average32 °F75%30.19 "Hg
* Reported Dec 7 11:53 AM — Dec 22 11:53 AM, Durango, Weather by CustomWeather, © 2014

Note: Actual official high and low records may vary slightly from our data, if they occured in-between our weather recording intervals... More about our weather records

Advertising

Durango weather history for previous 24 hours

 ConditionsComfort  
Time TempWeatherWind HumidityBarometerVisibility
11:53 AM
Dec 22
40 °FBroken clouds.26 mph80%29.73 "Hg10 mi
10:53 AM38 °FLight rain. Cloudy.23 mph90%29.81 "Hg10 mi
9:53 AM39 °FCloudy.23 mph76%29.81 "Hg10 mi
8:53 AM40 °FSunny.23 mph70%29.82 "Hg10 mi
7:53 AM39 °FPartly sunny.24 mph67%29.82 "Hg10 mi
6:53 AM41 °FClear.25 mph58%29.82 "Hg10 mi
5:53 AM40 °FClear.20 mph65%29.85 "Hg10 mi
4:53 AM39 °FClear.18 mph70%29.85 "Hg10 mi
3:53 AM40 °FClear.21 mph68%29.83 "Hg10 mi
2:53 AM42 °FClear.23 mph60%29.83 "Hg10 mi
1:53 AM41 °FClear.23 mph67%29.83 "Hg10 mi
12:53 AM41 °FClear.23 mph67%29.85 "Hg10 mi
11:53 PM
Dec 21
37 °FClear.21 mph73%29.89 "Hg10 mi
10:53 PM37 °FClear.23 mph73%29.93 "Hg10 mi
9:53 PM38 °FClear.21 mph73%29.93 "Hg10 mi
8:53 PM37 °FClear.22 mph73%29.94 "Hg10 mi
7:53 PM37 °FClear.20 mph73%29.95 "Hg10 mi
6:53 PM36 °FPassing clouds.14 mph75%29.98 "Hg10 mi
5:53 PM33 °FClear.No wind82%30.00 "Hg10 mi
4:53 PM34 °FSunny.7 mph79%29.99 "Hg10 mi
3:53 PM37 °FSunny.8 mph73%29.99 "Hg10 mi
2:53 PM36 °FSunny.8 mph73%30.00 "Hg10 mi
1:53 PM35 °FPassing clouds.7 mph75%30.00 "Hg10 mi
Weather by CustomWeather, © 2014

See weather overviewHow to use our weather pages